Find GPS II-6

NORAD ID: 20452 Int'l Des: 1990-008 Owner: AFSSD2 Country: US Constellation: GPS operational
MEOCIRCULAR

实时位置

正在加载3D地球...

关于 GPS II-6

正在加载描述...

即将过境

Passes for default location (London). Set your location on the main map for personalized predictions.

高度历史

Loading altitude history...

两行轨道根数

1 20452U 90008A 26124.49873003 .00000049 00000-0 00000-0 0 9992
2 20452 54.8516 135.1772 0016225 281.7551 74.4306 1.89597923255598
Epoch: May 4, 2026 • Age: 49 hours

当前状态

高度 21170.0 km
速度 3.81 km/s
星下点 -42.45°S, 38.96°E
发射日期 Jan 24, 1990
运行时间 36.2 years
类型 navigation

技术详情

分类 Payload
质量 776.00 kg
干质量 776.00 kg
总质量 1667.00 kg
长度 2.40 m
直径 1.80 m
跨度 5.30 m
形状 Box + 2 Pan
制造商 RWISB
平台类型 GPS II
阶段状态 In Orbit
所有者/国家 AFSSD2/US

Most Searched